Location: Burla
(50.9568°N, 10.4983°E)
Time: 18:31:08
(UTC+00:00)

Cosmos 841 Rocket - Pass Details

Date: 18 January 2026
Orbit: 743 x 766 km, 74.0° (Epoch: 18 February)

Event Time Altitude Azimuth Distance (km) Brightness Sun altitude
Exits shadow 06:14:07 - 335° (NNW) 3,007 6.1 -8.9°
Reaches altitude 10° 06:15:58 10° 335° (NNW) 2,283 5.5 -8.7°
Maximum altitude 06:21:09 85° 248° (WSW) 757 3.5 -7.9°
Drops below altitude 10° 06:26:16 10° 160° (SSE) 2,256 6.6 -7.2°
Sets 06:28:36 0° 159° (SSE) 3,173 7.4 -6.8°
